Location: *
(46.1866°S, 178.5290°W)
Time: 20:26:08
(UTC+00:00)

SL-16 R/B - Pass Details

Date: 19 May 2021
Orbit: 842 x 848 km, 71.0° (Epoch: 13 June)

Event Time Altitude Azimuth Distance (km) Brightness Sun altitude
Rises 06:54:47 0° 320° (NW) 3,398 6.0 -25.1°
Reaches altitude 10° 06:57:16 10° 315° (NW) 2,471 5.2 -25.6°
Maximum altitude 07:02:49 53° 238° (WSW) 1,048 2.9 -26.5°
Enters shadow 07:05:51 26° 173° (S) 1,619 3.5 -27.1°
